Regional Weather Roundup
Issued by NWS Goodland, KS

Home | Current Version | Previous Version | Text Only | Print | Product List | Glossary Off
Versions: 1 2 3 4 5 6 7 8 9 10 11 12 13 14 15 16 17 18 19 20 21 22 23 24 25 26 27 28 29 30 31 32 33 34 35 36 37 38 39 40 41 42 43 44 45 46 47 48 49 50

333
ASUS43 KGLD 220508
RWRGLD

GOODLAND FORECAST AREA HOURLY WEATHER ROUNDUP
NATIONAL WEATHER SERVICE GOODLAND KS
1000 PM MST TUE FEB 21 2017

...OFFICIAL OBSERVATIONS...

CITY           SKY/WX    TMP DP  RH WIND       PRES   REMARKS
GOODLAND KS    CLOUDY    55  18  23 SW14      29.85F
HILL CITY KS   CLOUDY    54  25  32 SW7       29.83F
IMPERIAL NEB   CLOUDY    49  21  33 SW9       29.80F
MCCOOK NEB     PTCLDY    54  27  35 W8        29.79F
AKRON CO       CLOUDY    51  12  21 SW21      29.86F
BURLINGTON CO  CLOUDY    49  15  25 W13       29.90F
LIMON CO       CLOUDY    55   7  14 W10       29.94F
$$

...UNOFFICIAL OBSERVATIONS...

CITY           SKY/WX    TMP DP  RH WIND       PRES   REMARKS
LENORA KS        N/A     58  32  37 S12         N/A
NORTON KS      CLEAR     54  19  26 S7        29.80F
SHARON SPRINGS   N/A     52  24  33 SW13        N/A
TRENTON NEB      N/A     54  32  43 CALM        N/A
KIT CARSON CO    N/A     49  17  27 MISG        N/A
YUMA CO        FAIR      46  18  31 SW13      29.84F
$$




USA.gov is the U.S. government's official web portal to all federal, state and local government web resources and services.